• In Uzbekistan
  • List of Countries
  • For 7 days
  • Water Temperature
  • Satellite Maps
  • Weather Map
  • Weather Widgets
  • user-avatar
    Login

    Hourly Weather Lemnos

    Today, 25 September, Monday

    Time Temperature Precipitation Wind Pressure Humidity
    00:00 +22°C° 0 mm 6 mps 760 mmHg 54%
    01:00 +23°C° 0 mm 6 mps 760 mmHg 56%
    02:00 +22°C° 0 mm 7 mps 759 mmHg 57%
    03:00 +22°C° 0 mm 7 mps 759 mmHg 58%
    04:00 +22°C° 0 mm 7 mps 759 mmHg 59%
    05:00 +22°C° 0 mm 8 mps 759 mmHg 61%
    06:00 +23°C° 0 mm 8 mps 759 mmHg 60%
    07:00 +23°C° 0 mm 9 mps 759 mmHg 59%
    08:00 +23°C° 0 mm 9 mps 759 mmHg 58%
    09:00 +23°C° 0 mm 9 mps 759 mmHg 57%
    10:00 +24°C° 0 mm 9 mps 759 mmHg 57%
    11:00 +24°C° 0 mm 9 mps 759 mmHg 56%
    12:00 +24°C° 0 mm 8 mps 759 mmHg 55%
    13:00 +24°C° 0 mm 8 mps 758 mmHg 55%
    14:00 +24°C° 0 mm 7 mps 758 mmHg 55%
    15:00 +24°C° 0 mm 6 mps 758 mmHg 54%
    16:00 +24°C° 0 mm 6 mps 758 mmHg 53%
    17:00 +25°C° 0 mm 5 mps 758 mmHg 53%
    18:00 +24°C° 0.4 mm 6 mps 758 mmHg 54%
    19:00 +24°C° 0.4 mm 6 mps 758 mmHg 55%
    20:00 +24°C° 0.4 mm 7 mps 758 mmHg 56%
    21:00 +23°C° 1.1 mm 7 mps 758 mmHg 59%
    22:00 +23°C° 1.1 mm 7 mps 758 mmHg 61%
    23:00 +23°C° 1.1 mm 7 mps 758 mmHg 64%

    Tomorrow, 26 September, Tuesday

    Time Temperature Precipitation Wind Pressure Humidity
    00:00 +22°C° 1.9 mm 7 mps 758 mmHg 66%
    01:00 +22°C° 1.9 mm 7 mps 758 mmHg 69%
    02:00 +21°C° 1.9 mm 7 mps 758 mmHg 71%
    03:00 +21°C° 1.7 mm 7 mps 758 mmHg 73%
    04:00 +21°C° 1.7 mm 6 mps 757 mmHg 74%
    05:00 +20°C° 1.7 mm 6 mps 757 mmHg 76%
    06:00 +21°C° 0.8 mm 6 mps 757 mmHg 75%
    07:00 +21°C° 0.8 mm 6 mps 758 mmHg 74%
    08:00 +21°C° 0.8 mm 6 mps 758 mmHg 73%
    09:00 +21°C° 0.3 mm 6 mps 758 mmHg 70%
    10:00 +22°C° 0.3 mm 6 mps 758 mmHg 67%
    11:00 +23°C° 0.3 mm 6 mps 759 mmHg 64%
    12:00 +23°C° 0.4 mm 6 mps 759 mmHg 62%
    13:00 +23°C° 0.4 mm 6 mps 758 mmHg 60%
    14:00 +24°C° 0.4 mm 6 mps 758 mmHg 58%
    15:00 +23°C° 0.1 mm 6 mps 758 mmHg 58%
    16:00 +23°C° 0.1 mm 5 mps 758 mmHg 58%
    17:00 +23°C° 0.1 mm 5 mps 758 mmHg 58%
    18:00 +23°C° 0 mm 5 mps 759 mmHg 58%
    19:00 +23°C° 0 mm 4 mps 759 mmHg 59%
    20:00 +22°C° 0 mm 4 mps 759 mmHg 60%
    21:00 +22°C° 0 mm 4 mps 759 mmHg 60%
    22:00 +22°C° 0 mm 4 mps 760 mmHg 60%
    23:00 +22°C° 0 mm 4 mps 760 mmHg 61%

    Day after tomorrow, 27 September, Wednesday

    Time Temperature Precipitation Wind Pressure Humidity
    00:00 +22°C° 0 mm 4 mps 760 mmHg 61%
    01:00 +22°C° 0 mm 4 mps 760 mmHg 61%
    02:00 +22°C° 0 mm 4 mps 760 mmHg 61%
    03:00 +22°C° 0.3 mm 5 mps 760 mmHg 61%
    04:00 +21°C° 0.3 mm 5 mps 760 mmHg 62%
    05:00 +21°C° 0.3 mm 5 mps 760 mmHg 62%
    06:00 +21°C° 0.2 mm 5 mps 760 mmHg 61%
    07:00 +22°C° 0.2 mm 5 mps 761 mmHg 60%
    08:00 +22°C° 0.2 mm 5 mps 761 mmHg 59%
    09:00 +22°C° 0.3 mm 5 mps 761 mmHg 59%
    10:00 +23°C° 0.3 mm 5 mps 761 mmHg 59%
    11:00 +23°C° 0.3 mm 5 mps 762 mmHg 59%
    12:00 +24°C° 0.2 mm 6 mps 762 mmHg 60%
    13:00 +24°C° 0.2 mm 6 mps 761 mmHg 61%
    14:00 +24°C° 0.2 mm 6 mps 761 mmHg 61%
    15:00 +24°C° 0.2 mm 7 mps 761 mmHg 63%
    16:00 +23°C° 0.2 mm 7 mps 761 mmHg 65%
    17:00 +23°C° 0.2 mm 8 mps 761 mmHg 67%
    18:00 +23°C° 0.3 mm 9 mps 762 mmHg 68%
    19:00 +22°C° 0.3 mm 10 mps 762 mmHg 69%
    20:00 +22°C° 0.3 mm 11 mps 762 mmHg 70%
    21:00 +22°C° 0 mm 11 mps 762 mmHg 71%
    22:00 +22°C° 0 mm 11 mps 763 mmHg 72%
    23:00 +21°C° 0 mm 12 mps 763 mmHg 73%

    28 September, Thursday

    Time Temperature Precipitation Wind Pressure Humidity
    00:00 +21°C° 0 mm 12 mps 763 mmHg 72%
    01:00 +21°C° 0 mm 12 mps 763 mmHg 72%
    02:00 +21°C° 0 mm 11 mps 763 mmHg 71%
    03:00 +21°C° 0 mm 12 mps 763 mmHg 71%
    04:00 +19°C° 0 mm 12 mps 763 mmHg 70%
    05:00 +19°C° 0 mm 12 mps 762 mmHg 70%
    06:00 +19°C° 0 mm 12 mps 763 mmHg 69%
    07:00 +19°C° 0 mm 12 mps 763 mmHg 68%
    08:00 +19°C° 0 mm 12 mps 763 mmHg 67%
    09:00 +21°C° 0 mm 12 mps 763 mmHg 65%
    10:00 +21°C° 0 mm 12 mps 763 mmHg 62%
    11:00 +21°C° 0 mm 12 mps 763 mmHg 59%
    12:00 +22°C° 0 mm 12 mps 763 mmHg 57%
    13:00 +22°C° 0 mm 12 mps 763 mmHg 54%
    14:00 +22°C° 0 mm 11 mps 762 mmHg 52%
    15:00 +22°C° 0 mm 12 mps 762 mmHg 53%
    16:00 +22°C° 0 mm 12 mps 762 mmHg 54%
    17:00 +22°C° 0 mm 13 mps 762 mmHg 55%
    18:00 +22°C° 0 mm 13 mps 762 mmHg 59%
    19:00 +20°C° 0 mm 13 mps 763 mmHg 63%
    20:00 +20°C° 0 mm 14 mps 763 mmHg 66%
    21:00 +19°C° 0 mm 14 mps 763 mmHg 66%
    22:00 +19°C° 0 mm 14 mps 763 mmHg 65%
    23:00 +19°C° 0 mm 14 mps 763 mmHg 65%

    29 September, Friday

    Time Temperature Precipitation Wind Pressure Humidity
    00:00 +19°C° 0 mm 13 mps 762 mmHg 63%
    01:00 +19°C° 0 mm 13 mps 762 mmHg 62%
    02:00 +19°C° 0 mm 13 mps 762 mmHg 61%
    03:00 +18°C° 0 mm 13 mps 762 mmHg 62%
    04:00 +18°C° 0 mm 13 mps 762 mmHg 63%
    05:00 +18°C° 0 mm 13 mps 762 mmHg 64%
    06:00 +18°C° 0 mm 13 mps 762 mmHg 64%
    07:00 +18°C° 0 mm 13 mps 762 mmHg 63%
    08:00 +18°C° 0 mm 13 mps 762 mmHg 63%
    09:00 +19°C° 0 mm 13 mps 762 mmHg 60%
    10:00 +19°C° 0 mm 13 mps 762 mmHg 57%
    11:00 +19°C° 0 mm 13 mps 762 mmHg 53%
    12:00 +20°C° 0 mm 13 mps 761 mmHg 52%
    13:00 +21°C° 0 mm 12 mps 761 mmHg 50%
    14:00 +21°C° 0 mm 12 mps 761 mmHg 48%
    15:00 +21°C° 0 mm 12 mps 760 mmHg 49%
    16:00 +21°C° 0 mm 12 mps 760 mmHg 50%
    17:00 +21°C° 0 mm 12 mps 760 mmHg 52%
    18:00 +20°C° 0 mm 13 mps 761 mmHg 54%
    19:00 +19°C° 0 mm 13 mps 761 mmHg 57%
    20:00 +19°C° 0 mm 13 mps 761 mmHg 59%
    21:00 +19°C° 0 mm 13 mps 761 mmHg 60%
    22:00 +19°C° 0 mm 13 mps 761 mmHg 61%
    23:00 +18°C° 0 mm 12 mps 761 mmHg 62%

    30 September, Saturday

    Time Temperature Precipitation Wind Pressure Humidity
    00:00 +18°C° 0 mm 12 mps 761 mmHg 62%
    01:00 +18°C° 0 mm 12 mps 761 mmHg 62%
    02:00 +18°C° 0 mm 12 mps 761 mmHg 61%
    03:00 +18°C° 0 mm 12 mps 760 mmHg 60%
    04:00 +17°C° 0 mm 12 mps 760 mmHg 58%
    05:00 +17°C° 0 mm 11 mps 760 mmHg 57%
    06:00 +17°C° 0 mm 11 mps 760 mmHg 55%
    07:00 +18°C° 0 mm 11 mps 760 mmHg 53%
    08:00 +18°C° 0 mm 11 mps 760 mmHg 51%
    09:00 +18°C° 0 mm 11 mps 760 mmHg 49%
    10:00 +18°C° 0 mm 10 mps 760 mmHg 47%
    11:00 +19°C° 0 mm 10 mps 760 mmHg 44%
    12:00 +19°C° 0 mm 9 mps 760 mmHg 43%
    13:00 +19°C° 0 mm 9 mps 760 mmHg 42%
    14:00 +20°C° 0 mm 8 mps 759 mmHg 40%
    15:00 +20°C° 0 mm 8 mps 759 mmHg 40%
    16:00 +20°C° 0 mm 7 mps 759 mmHg 39%
    17:00 +20°C° 0 mm 7 mps 759 mmHg 39%
    18:00 +20°C° 0 mm 7 mps 760 mmHg 40%
    19:00 +20°C° 0 mm 7 mps 760 mmHg 40%
    20:00 +20°C° 0 mm 7 mps 760 mmHg 41%
    21:00 +20°C° 0 mm 7 mps 760 mmHg 42%
    22:00 +20°C° 0 mm 7 mps 760 mmHg 44%
    23:00 +20°C° 0 mm 7 mps 760 mmHg 45%
    Show more